Humidity-temperature Sensor

Selected Measurement Type: Relative Humidity

 
Relative Humidity [%]     6 entries per hour
Showing data from 8/30/2018 (00:00:00 Z) to 8/27/2018 (00:01:00 Z)
Previous Next [ Day | 3-Days | 7-Days ]
First Last
Prev [ Day | 3-Days | 7-Days ] Next
First Last

Start Time:     :
End Time:     :     
Time (in GMT) :00 :50 :40 :30 :20 :10
Previous Next [ Day | 3-Days | 7-Days ]
First Last
Prev [ Day | 3-Days | 7-Days ] Next
First Last


123 => good data
MM => data is determined as missing
-- => data not received/configured
Back to Top Back to Top
8/30/2018 00:00 to 23:10 86.21 87.03 87.41 85.39 86.02 87.05
8/29/2018 23:00 to 22:10 86.90 89.90 88.97 85.45 86.10 87.96
8/29/2018 22:00 to 21:10 86.12 84.25 85.55 91.45 92.45 93.12
8/29/2018 21:00 to 20:10 91.50 88.99 87.66 89.24 91.48 92.28
8/29/2018 20:00 to 19:10 91.79 91.56 92.63 93.65 92.49 91.85
8/29/2018 19:00 to 18:10 89.56 84.40 84.33 84.21 85.55 83.78
8/29/2018 18:00 to 17:10 82.84 83.41 85.47 86.54 88.88 83.28
8/29/2018 17:00 to 16:10 83.74 85.66 86.42 84.90 85.45 87.28
8/29/2018 16:00 to 15:10 89.07 90.00 88.84 88.04 88.55 90.97
8/29/2018 15:00 to 14:10 90.99 93.81 95.27 94.11 90.70 88.06
8/29/2018 14:00 to 13:10 88.53 88.97 90.91 92.17 91.77 92.51
8/29/2018 13:00 to 12:10 92.07 92.23 88.48 84.31 83.57 84.59
8/29/2018 12:00 to 11:10 89.30 90.13 91.50 89.20 86.46 85.07
8/29/2018 11:00 to 10:10 84.18 83.59 84.73 84.44 83.99 83.81
8/29/2018 10:00 to 9:10 83.36 84.40 86.04 89.73 92.06 90.93
8/29/2018 09:00 to 8:10 89.30 88.23 85.24 85.43 85.93 85.64
8/29/2018 08:00 to 7:10 83.32 84.88 81.61 81.11 81.87 84.71
8/29/2018 07:00 to 6:10 84.12 85.03 88.44 89.28 90.91 90.97
8/29/2018 06:00 to 5:10 87.79 85.05 85.81 86.86 86.04 85.60
8/29/2018 05:00 to 4:10 89.28 90.57 86.42 86.63 90.11 90.23
8/29/2018 04:00 to 3:10 90.53 91.33 89.05 85.64 85.62 87.01
8/29/2018 03:00 to 2:10 84.48 86.10 85.45 85.28 83.91 84.29
8/29/2018 02:00 to 1:10 85.07 83.81 84.78 86.38 87.09 87.05
8/29/2018 01:00 to 0:10 86.73 87.47 87.16 86.92 84.31 84.14
8/29/2018 00:00 to 23:10 83.26 85.66 87.26 89.60 83.34 81.38
8/28/2018 23:00 to 22:10 80.03 79.61 80.37 80.18 82.35 81.70
8/28/2018 22:00 to 21:10 80.86 80.03 80.83 80.90 79.91 81.19
8/28/2018 21:00 to 20:10 81.28 82.50 80.65 80.26 81.80 82.42
8/28/2018 20:00 to 19:10 81.87 81.80 80.73 81.42 82.79 82.25
8/28/2018 19:00 to 18:10 82.73 84.10 84.63 84.14 84.63 84.78
8/28/2018 18:00 to 17:10 85.70 86.86 87.72 90.09 91.54 91.41
8/28/2018 17:00 to 16:10 94.72 93.90 93.18 93.03 91.62 90.40
8/28/2018 16:00 to 15:10 90.36 87.11 84.39 84.82 83.40 81.91
8/28/2018 15:00 to 14:10 80.33 79.00 79.99 80.94 81.09 79.63
8/28/2018 14:00 to 13:10 79.53 77.78 80.54 81.40 82.60 82.35
8/28/2018 13:00 to 12:10 80.43 81.87 81.64 84.18 85.49 89.81
8/28/2018 12:00 to 11:10 88.72 84.71 85.13 86.31 85.89 86.48
8/28/2018 11:00 to 10:10 87.51 88.15 85.91 88.82 88.29 88.00
8/28/2018 10:00 to 9:10 86.90 87.98 88.82 88.31 88.80 90.17
8/28/2018 09:00 to 8:10 87.64 87.89 86.33 87.20 86.52 87.11
8/28/2018 08:00 to 7:10 85.39 85.72 86.71 87.26 86.84 85.74
8/28/2018 07:00 to 6:10 86.95 85.96 85.53 85.85 86.14 86.94
8/28/2018 06:00 to 5:10 86.19 87.22 87.13 86.67 87.81 87.20
8/28/2018 05:00 to 4:10 89.22 92.00 93.29 94.99 93.88 94.61
8/28/2018 04:00 to 3:10 94.91 95.80 96.57 95.96 95.80 95.08
8/28/2018 03:00 to 2:10 94.70 94.28 92.49 91.35 90.46 89.90
8/28/2018 02:00 to 1:10 89.98 88.99 87.94 87.83 88.27 86.67
8/28/2018 01:00 to 0:10 86.10 84.98 84.59 84.69 84.21 84.37
8/28/2018 00:00 to 23:10 84.39 84.44 85.51 84.86 84.73 84.77
8/27/2018 23:00 to 22:10 84.88 85.95 85.70 86.50 84.69 85.74
8/27/2018 22:00 to 21:10 86.46 85.85 85.57 85.51 84.52 84.25
8/27/2018 21:00 to 20:10 84.23 83.68 84.25 84.44 84.71 85.32
8/27/2018 20:00 to 19:10 84.82 84.77 84.90 84.40 84.16 85.39
8/27/2018 19:00 to 18:10 85.15 84.75 84.69 84.56 85.39 86.08
8/27/2018 18:00 to 17:10 85.64 86.54 86.00 85.77 86.14 85.79
8/27/2018 17:00 to 16:10 86.61 85.11 86.63 85.30 85.18 86.54
8/27/2018 16:00 to 15:10 86.54 86.40 87.01 87.41 89.47 90.25
8/27/2018 15:00 to 14:10 91.26 92.19 92.26 92.55 91.75 92.23
8/27/2018 14:00 to 13:10 91.27 91.14 89.98 90.38 89.75 90.74
8/27/2018 13:00 to 12:10 90.29 89.92 90.99 91.67 91.27 92.32
8/27/2018 12:00 to 11:10 94.07 94.72 95.90 96.34 96.28 95.90
8/27/2018 11:00 to 10:10 95.61 94.95 94.76 94.45 91.85 88.91
8/27/2018 10:00 to 9:10 88.13 88.40 87.56 87.09 86.75 86.69
8/27/2018 09:00 to 8:10 86.54 86.36 85.49 84.54 84.50 83.99
8/27/2018 08:00 to 7:10 84.77 85.18 85.36 85.43 85.07 85.05
8/27/2018 07:00 to 6:10 84.99 84.33 83.83 84.75 84.98 85.79
8/27/2018 06:00 to 5:10 85.70 86.71 86.52 87.58 88.06 87.98
8/27/2018 05:00 to 4:10 88.15 88.17 88.06 88.44 87.94 88.02
8/27/2018 04:00 to 3:10 87.75 86.82 86.71 86.35 85.11 84.99
8/27/2018 03:00 to 2:10 84.65 83.66 83.78 84.29 84.65 84.78
8/27/2018 02:00 to 1:10 85.37 84.19 84.59 83.93 83.99 82.92
8/27/2018 01:00 to 0:10 83.43 82.98 82.79 82.69 82.14 82.20